Location: ??????
(55.2000°N, 38.3000°E)
Time: 01:44:45
(UTC+00:00)

Cosmos 2237 Rocket - Pass Details

Date: 15 November 2025
Orbit: 835 x 847 km, 71.0° (Epoch: 12 December)

Event Time Altitude Azimuth Distance (km) Brightness Sun altitude
Exits shadow 01:55:43 45° 195° (SSW) 1,133 2.6 -25.9°
Maximum altitude 01:57:30 77° 120° (ESE) 869 2.2 -25.6°
Drops below altitude 10° 02:03:09 10° 36° (NE) 2,466 5.1 -24.8°
Sets 02:05:36 0° 35° (NE) 3,403 5.9 -24.5°
